Flag for Canada Weather past 2 weeks in Chatham-Kent, Ontario, Canada

Now
29 °F

Chilly.


Feels Like: 25 °F
Forecast: 30 / 33 °F
Wind: 3 mph from Northwest

Location: Erieau

Current Time: Dec 19, 2014 at 11:30:40 PM

Latest Report: Dec 19, 2014 at 10:00 PM


Visibility: N/A

Pressure: 30.30 "Hg

Humidity: 76%

Dew point: 22 °F

Location of Chatham-KentLocation

Historic Weather in Chatham-Kent — Graph

°F

Chatham-Kent temperature yesterday

Maximum temperature yesterday: 31 °F (at 2:00 PM)
Minimum temperature yesterday: 29 °F (at 11:00 PM)
Average temperature yesterday: 30 °F

Past Weeks' High & Low Weather Summary

 TemperatureHumidityPressure
High42 °F (Dec 8, 4:00 PM)100% (Dec 14, 3:00 PM)30.71 "Hg (Dec 14, 3:00 PM)
Low24 °F (Dec 11, 6:00 AM)32% (Dec 11, 3:00 PM)29.66 "Hg (Dec 16, 1:00 PM)
Average35 °F81%30.15 "Hg
* Reported Dec 4 10:00 PM — Dec 19 10:00 PM, Chatham-Kent, Weather by CustomWeather, © 2014

Note: Actual official high and low records may vary slightly from our data, if they occured in-between our weather recording intervals... More about our weather records

Advertising

Chatham-Kent weather history for previous 24 hours

 ConditionsComfort  
Time TempWeatherWind HumidityBarometerVisibility
10:00 PM
Dec 19
29 °FChilly.3 mph76%30.30 "HgN/A
9:00 PM29 °FChilly.5 mph73%30.33 "HgN/A
8:00 PM30 °FChilly.5 mph70%30.33 "HgN/A
7:00 PM30 °FChilly.5 mph70%30.31 "HgN/A
6:00 PM30 °FChilly.6 mph71%30.29 "HgN/A
5:00 PM30 °FChilly.7 mph71%30.28 "HgN/A
4:00 PM31 °FChilly.5 mph64%30.27 "HgN/A
3:00 PM32 °FChilly.6 mph64%30.25 "HgN/A
2:00 PM32 °FChilly.6 mph64%30.25 "HgN/A
1:00 PM33 °FChilly.5 mph63%30.25 "HgN/A
12:00 PM32 °FChilly.5 mph67%30.25 "HgN/A
11:00 AM30 °FChilly.6 mph72%30.27 "HgN/A
10:00 AM29 °FChilly.8 mph75%30.27 "HgN/A
9:00 AM28 °FChilly.6 mph79%30.26 "HgN/A
8:00 AM28 °FChilly.5 mph82%30.25 "HgN/A
7:00 AM28 °FChilly.8 mph83%30.23 "HgN/A
6:00 AM28 °FChilly.7 mph83%30.21 "HgN/A
5:00 AM28 °FChilly.6 mph84%30.20 "HgN/A
4:00 AM27 °FChilly.6 mph85%30.20 "HgN/A
3:00 AM28 °FChilly.6 mph83%30.19 "HgN/A
2:00 AM28 °FChilly.5 mph83%30.18 "HgN/A
1:00 AM28 °FChilly.5 mph86%30.18 "HgN/A
12:00 AM28 °FChilly.5 mph93%30.18 "HgN/A
11:00 PM
Dec 18
29 °FChilly.3 mph100%30.18 "HgN/A
Weather by CustomWeather, © 2014

See weather overviewHow to use our weather pages